Wind_Speed
113 114 116 117 119 120 122 123 125 126 128 129 131 132 133 135 136 137 138 139 140 142 142 143 143 143 143 143 143 143 144 144 145 146 147 149 150 151 153 155 156 158 160 162 163 163 162 160 158 155 151 148 144 140 137 133 130 127 124 121 118 116 114 111 109 106 103 100 97 94 91 88 86 84 82 80 78 76 75 73 71 70 68 66 65 63
114 116 117 119 120 122 123 125 126 128 129 130 132 133 135 136 137 138 139 141 142 142 143 144 144 144 143 143 144 144 144 145 146 147 149 150 151 153 154 156 158 160 162 163 163 162 161 159 156 152 149 145 141 138 134 131 128 125 122 119 117 114 112 110 107 104 101 98 95 92 89 87 84 82 81 79 77 75 74 72 70 68 67 65 63 62
116 117 119 120 122 123 125 126 128 129 130 132 133 134 136 137 138 139 140 142 143 143 144 144 144 144 144 144 144 145 145 146 147 149 150 151 153 154 156 158 160 162 163 163 163 161 159 156 153 150 146 142 139 135 132 129 126 123 120 118 115 113 110 108 105 102 99 96 93 90 87 85 83 81 79 77 76 74 72 70 69 67 65 64 62 60
117 118 120 122 123 125 126 128 129 130 132 133 134 135 137 138 139 140 141 143 143 144 144 144 144 144 144 144 145 145 146 147 149 150 151 153 154 156 158 160 162 163 164 163 162 160 157 154 151 147 144 140 137 133 130 127 124 121 119 116 114 112 109 106 103 100 97 94 91 88 86 84 81 80 78 76 74 72 71 69 67 65 64 62 60 59
118 120 121 123 125 126 128 129 130 132 133 134 135 137 138 139 140 141 142 143 144 144 144 144 144 144 144 145 145 146 147 148 150 151 153 154 156 158 160 161 163 164 163 162 160 158 155 152 148 145 141 138 134 131 128 125 122 120 117 115 112 110 107 104 101 98 94 91 89 86 84 82 80 78 76 74 73 71 69 67 65 64 62 60 59 57
120 121 123 124 126 127 129 130 131 132 134 135 136 138 139 140 141 142 143 143 144 144 144 144 145 145 145 145 146 147 148 149 151 152 154 156 158 159 161 163 164 164 163 161 159 156 153 149 146 142 139 136 132 129 126 123 121 118 116 114 111 108 105 102 99 95 92 90 87 85 83 81 79 77 75 73 71 69 67 65 63 62 60 59 58 56
121 123 124 125 127 128 130 131 132 133 134 136 137 138 140 141 142 142 143 143 144 144 144 145 145 145 146 146 147 148 149 150 152 154 155 157 159 161 163 164 164 163 161 159 156 153 150 147 143 140 137 133 130 127 124 122 119 117 115 112 109 106 103 100 96 93 91 88 86 83 81 79 77 75 73 71 69 67 65 63 62 60 59 57 56 55
122 124 125 127 128 130 131 132 133 134 135 136 138 139 141 142 143 143 144 144 144 144 144 145 145 146 146 147 148 149 150 151 153 155 157 159 161 162 163 164 163 161 159 157 154 151 147 144 141 138 134 131 128 125 123 120 118 116 113 110 107 104 101 97 94 91 89 86 84 82 80 78 76 74 72 70 68 66 63 62 60 58 57 56 55 54
123 125 126 128 129 130 132 133 134 135 136 137 138 140 141 142 143 143 144 144 144 144 144 145 145 146 147 148 149 150 151 153 154 156 158 161 162 163 163 163 162 160 157 154 151 148 145 142 139 135 132 129 126 124 121 119 116 114 111 108 105 102 99 95 92 90 87 85 83 80 78 76 74 72 70 68 66 64 62 60 59 57 56 55 53 52
124 126 127 129 130 131 132 133 135 136 137 138 139 140 141 142 142 143 143 144 144 144 144 145 146 147 148 149 150 151 152 154 156 158 160 162 163 163 163 162 160 158 155 152 149 146 142 139 136 133 130 127 124 122 120 117 115 112 109 106 103 100 96 93 90 88 85 83 81 79 77 75 73 71 69 67 65 63 61 59 57 56 54 53 52 51
125 127 128 129 131 132 133 134 135 136 138 139 140 141 142 142 142 143 143 143 144 144 145 145 146 147 148 149 151 152 154 156 158 160 162 163 163 163 161 160 158 155 152 149 146 143 140 137 134 131 128 125 123 120 118 116 113 110 107 104 101 97 94 91 89 86 84 81 79 77 75 73 71 69 67 65 64 62 60 58 56 54 53 52 50 49
126 128 129 130 131 133 134 135 136 138 139 140 141 142 142 142 142 142 142 143 144 144 145 146 146 147 148 149 151 153 155 157 160 161 163 163 163 162 160 158 156 153 150 147 144 141 138 135 132 129 126 124 121 119 117 114 111 108 105 102 98 95 92 89 87 84 82 80 78 76 74 72 70 68 66 64 63 61 59 57 56 54 52 51 49 48
127 128 129 131 132 133 135 136 137 139 140 140 141 141 142 142 142 142 142 142 143 144 145 146 147 148 149 151 152 154 156 159 161 162 163 163 162 160 158 156 154 151 147 144 141 138 135 133 130 127 124 122 120 117 115 112 109 106 103 99 96 93 90 87 85 83 80 78 76 74 72 70 68 66 64 63 61 60 58 57 55 54 52 50 48 46
128 129 130 132 133 134 136 137 138 139 140 141 141 141 141 141 142 142 142 143 144 144 145 146 147 149 151 152 154 156 158 160 162 163 163 162 160 158 156 154 151 148 145 142 139 136 133 130 128 125 123 120 118 116 113 110 107 104 100 97 94 91 88 85 83 81 79 77 75 73 70 68 66 64 63 61 60 59 57 56 55 53 51 50 48 46
129 130 131 132 134 135 137 138 139 140 140 141 141 141 141 141 142 142 142 143 144 145 146 147 148 150 152 154 156 158 160 161 162 162 162 160 158 156 154 152 149 146 142 140 137 134 131 128 126 123 121 119 117 114 111 108 105 101 98 95 91 89 86 84 81 79 77 75 73 71 69 67 65 63 62 60 59 58 56 55 54 53 51 49 47 45
129 130 132 133 135 136 138 138 139 140 140 140 140 141 141 141 141 142 142 142 143 145 146 147 149 152 154 156 158 159 161 161 161 161 160 159 157 154 151 149 146 143 140 137 135 132 129 126 124 122 120 117 115 112 109 106 102 99 95 92 89 87 84 82 80 78 75 73 71 69 67 65 63 62 60 59 58 56 55 54 53 52 51 49 47 45
130 131 132 134 135 137 138 139 139 139 140 140 140 140 140 141 141 142 142 143 143 144 146 147 150 152 155 158 160 161 161 161 160 160 158 157 154 152 149 146 144 141 138 135 132 130 127 125 122 120 118 115 113 110 107 103 100 96 93 90 87 85 82 80 78 76 74 72 69 67 65 63 61 60 59 58 57 56 54 53 52 50 50 48 47 44
131 132 133 135 136 137 138 139 139 139 140 140 140 140 141 141 141 141 142 143 144 145 147 149 151 153 156 158 160 161 160 160 159 158 156 155 152 149 146 143 141 138 135 133 130 127 125 123 121 118 116 113 111 107 104 101 97 94 91 88 85 83 80 78 76 74 72 70 68 65 63 61 59 58 57 56 56 55 53 52 50 49 48 47 46 44
131 133 134 135 136 137 138 138 139 139 139 139 140 140 140 141 141 142 142 143 144 146 148 150 152 155 157 159 160 160 159 158 157 156 154 152 150 147 143 141 138 136 133 130 128 125 123 121 119 117 114 111 108 105 102 98 95 91 88 86 83 81 79 77 75 73 71 69 66 64 62 59 58 56 56 55 54 54 52 51 49 48 47 46 45 43
132 133 134 135 136 136 137 138 138 138 138 139 139 139 140 141 141 142 143 144 146 147 149 152 154 156 157 158 158 158 158 156 155 153 152 150 147 144 141 138 136 134 131 128 126 123 121 119 117 115 112 109 106 102 99 95 92 89 86 83 81 79 77 75 73 72 69 67 65 63 60 58 56 55 54 54 53 52 51 50 48 47 45 44 43 42
132 134 134 135 135 136 136 137 138 138 138 138 139 139 140 141 141 142 144 145 147 149 152 154 155 157 157 157 157 156 155 154 153 151 149 147 144 141 138 136 134 131 129 126 124 122 120 118 115 112 110 106 103 99 96 92 89 86 84 81 79 77 75 73 72 70 68 66 64 62 60 58 56 54 53 53 52 51 50 49 47 46 44 43 42 41
132 133 134 135 135 135 136 136 137 137 138 138 138 139 139 140 142 143 145 147 149 151 153 155 156 156 156 156 155 154 153 152 150 148 147 145 142 139 136 134 131 129 127 125 122 120 118 116 113 110 107 104 100 97 93 90 87 84 81 79 77 75 73 72 70 69 67 65 63 61 59 57 56 54 53 52 51 50 49 48 47 45 43 42 41 40
132 133 134 135 135 135 135 136 136 137 137 137 138 139 139 140 142 144 146 148 150 152 154 155 155 155 155 154 153 152 151 149 148 146 144 142 140 137 134 131 129 127 125 123 121 119 116 114 111 108 105 101 98 94 91 88 85 82 79 77 75 73 71 70 69 67 66 64 62 61 59 57 56 54 53 52 50 49 49 47 46 45 43 41 40 39
132 133 133 134 134 135 135 135 136 136 137 137 138 139 140 141 143 145 147 149 151 153 154 155 155 155 154 153 152 150 149 147 145 143 141 139 137 134 132 129 127 125 123 121 119 117 114 112 109 105 102 99 95 91 88 85 82 80 77 75 73 71 69 68 66 65 64 63 61 59 58 57 55 54 53 51 50 49 48 47 46 44 42 41 40 39
132 132 133 133 134 134 134 135 135 136 137 138 139 140 141 143 145 147 149 151 152 153 154 154 154 153 153 151 150 148 147 145 143 141 139 137 135 132 129 127 125 124 122 119 117 115 112 109 106 103 99 96 92 89 86 83 80 77 75 73 70 68 67 65 64 63 62 61 59 58 57 55 55 54 53 51 50 49 48 46 45 44 42 41 39 38
131 132 132 133 133 133 134 134 135 136 137 138 139 141 142 145 147 149 151 152 153 153 153 153 153 152 151 149 148 147 145 142 140 138 136 134 133 130 128 125 123 122 120 118 115 113 110 107 104 101 97 93 90 87 84 81 78 75 73 70 68 66 65 63 62 61 60 59 58 56 55 54 53 52 52 51 50 49 48 46 45 43 42 40 39 37
131 131 132 132 133 133 133 134 135 136 137 139 140 142 144 146 148 150 151 153 153 153 152 152 151 150 149 148 146 144 142 140 138 136 134 132 130 128 126 124 122 120 118 116 113 111 108 105 102 98 95 91 88 85 82 79 76 73 71 68 66 64 63 62 61 60 59 58 56 55 53 52 51 51 50 50 49 48 47 46 45 43 41 40 38 37
130 131 131 132 132 133 133 134 135 136 138 140 141 143 146 147 149 150 151 152 152 151 151 150 149 148 147 145 144 142 140 138 135 133 131 130 128 126 124 122 120 118 116 114 111 108 105 102 99 96 92 89 86 83 80 77 74 72 69 67 65 63 61 60 60 59 58 56 55 53 52 50 49 48 48 48 48 47 47 46 44 43 41 39 37 36
130 130 131 131 132 132 133 134 136 137 139 141 143 145 147 148 149 150 150 151 150 149 149 148 147 146 144 143 141 139 137 135 133 131 129 128 126 124 122 120 118 116 114 112 109 106 103 99 96 93 90 87 84 81 78 75 73 70 68 65 63 61 60 59 59 58 57 56 54 52 50 48 47 46 46 46 46 45 45 44 44 42 40 38 36 35
129 130 130 131 132 132 133 135 136 138 140 142 144 146 147 148 149 149 149 149 148 147 147 146 145 143 142 140 139 137 135 133 131 129 127 126 124 122 120 118 116 114 112 110 107 104 101 97 94 90 87 84 82 79 76 74 71 69 66 63 61 60 59 58 58 57 57 55 53 51 49 47 45 44 44 44 43 43 43 43 42 41 40 37 35 34
129 129 130 130 132 133 134 136 137 139 141 143 145 146 147 148 148 148 147 147 146 145 144 143 142 141 139 138 136 135 133 132 129 127 125 124 122 120 118 117 115 112 110 107 104 102 99 96 92 88 85 82 79 77 74 72 69 67 64 62 60 58 57 57 57 57 56 55 53 51 49 47 45 43 42 42 41 41 41 41 41 40 39 37 34 33
128 128 129 130 132 133 135 137 138 140 142 144 145 146 146 146 146 146 145 145 144 143 142 141 140 138 137 135 134 132 131 129 127 125 123 121 120 118 116 114 112 110 107 104 102 99 96 93 91 87 84 80 78 75 72 70 67 64 62 59 57 56 56 55 56 56 55 55 53 51 49 47 45 43 42 41 40 39 39 39 39 39 38 36 34 32
127 128 129 131 132 134 136 138 139 141 142 143 144 145 145 145 144 144 143 143 142 141 140 139 138 136 134 133 131 130 129 127 125 123 121 119 118 116 114 112 110 107 105 102 99 96 93 91 88 85 82 79 76 73 70 68 65 62 59 57 55 54 54 54 54 55 55 54 53 51 49 47 45 43 42 40 39 38 37 37 37 37 36 35 33 31
127 128 130 131 133 135 137 139 140 141 142 143 143 143 143 143 142 142 141 141 140 139 137 136 135 134 132 131 130 128 126 125 123 121 119 117 116 114 112 110 107 105 102 99 96 93 91 88 86 83 81 78 75 72 69 66 63 60 57 55 53 52 51 51 52 53 53 53 52 51 49 48 46 44 42 41 39 37 36 35 35 35 35 35 33 31
127 129 131 132 134 136 138 139 141 141 142 142 142 141 141 140 140 139 139 138 137 136 135 134 132 131 130 129 128 126 125 123 120 119 117 115 114 112 110 107 105 102 99 97 94 91 89 86 84 81 79 76 74 71 68 65 62 58 55 53 51 49 49 49 50 50 51 51 50 49 48 47 46 44 43 41 39 37 35 34 34 33 34 33 33 31
128 130 132 134 135 137 138 139 140 140 140 140 140 140 139 138 138 137 137 136 135 134 133 131 130 128 127 126 125 124 122 120 118 116 115 113 111 109 107 105 102 99 96 94 91 89 86 84 82 80 77 75 73 70 67 64 61 58 55 52 50 48 47 47 48 48 49 49 48 47 47 46 45 44 43 41 39 37 35 33 32 32 32 32 32 31
129 131 133 134 136 137 138 139 139 139 139 138 138 137 137 136 136 135 135 134 132 131 130 129 128 127 125 124 123 121 119 118 116 114 113 111 109 107 104 102 99 96 93 91 88 86 84 82 80 78 76 74 71 69 66 63 60 57 54 52 49 48 47 46 47 47 47 47 47 46 45 44 44 43 42 41 39 37 35 33 32 31 31 30 30 30
130 132 133 135 136 137 137 137 137 137 137 136 136 135 135 134 134 133 132 131 130 129 127 126 125 124 124 122 121 119 117 116 114 113 111 109 107 104 102 99 96 93 90 88 85 83 81 79 78 76 74 72 70 67 64 62 59 56 54 52 50 48 47 47 47 47 47 46 46 45 44 43 43 42 42 41 40 38 36 33 31 30 29 29 29 29
131 132 134 135 136 136 136 136 135 135 134 134 134 133 133 132 132 131 130 129 127 126 125 124 123 122 121 120 118 117 115 114 112 111 109 107 104 101 99 96 93 90 88 85 82 80 78 77 75 74 72 70 68 66 63 60 58 55 53 52 50 49 48 47 47 47 47 46 45 45 44 43 42 42 41 41 40 38 36 34 32 30 28 27 27 27
131 133 134 134 135 134 134 133 133 133 132 132 132 132 131 131 130 129 128 127 125 124 122 121 120 120 118 117 116 114 113 112 110 109 107 104 102 99 96 93 90 88 85 82 80 78 76 75 73 72 70 69 67 64 62 59 57 55 53 52 51 50 49 48 48 48 47 46 45 44 43 43 42 41 41 40 39 38 36 34 32 30 28 27 26 25
131 132 133 133 133 133 132 131 131 130 130 130 130 130 130 129 128 127 126 125 123 122 121 120 119 117 116 115 113 112 111 110 108 106 104 102 99 97 94 91 88 85 83 80 78 76 74 73 72 70 69 67 65 63 61 59 56 55 53 52 51 50 49 49 48 48 47 46 45 44 43 42 41 40 40 39 38 37 36 34 32 30 28 26 25 24
131 131 132 131 131 130 129 129 128 128 128 128 128 128 128 127 126 125 124 123 122 121 119 118 117 115 114 112 111 110 109 107 106 104 102 99 97 94 91 89 86 83 81 78 76 75 73 72 70 69 68 67 65 63 61 58 56 54 53 51 50 49 49 48 47 47 46 45 44 43 42 41 40 39 39 38 37 36 35 33 31 29 27 26 24 23
130 130 130 129 128 127 127 126 126 126 126 126 126 126 126 125 124 123 122 121 120 119 118 116 115 113 111 110 109 108 107 105 103 101 99 97 94 91 88 86 83 81 78 76 74 73 71 70 69 68 67 65 64 62 60 58 56 54 52 50 49 48 47 46 46 45 44 44 43 41 40 39 38 38 37 37 36 35 34 32 30 29 27 25 24 22
128 128 127 126 125 125 125 124 124 124 124 124 124 124 124 123 122 121 120 119 118 117 116 114 112 111 110 108 107 106 105 103 101 99 96 94 91 88 86 83 80 78 75 73 71 70 69 68 67 66 65 64 62 60 58 56 54 52 50 48 47 45 45 44 44 43 43 42 41 40 39 38 37 36 35 35 34 34 32 31 29 27 26 25 23 22
125 125 124 123 123 122 122 122 122 122 122 122 122 122 122 121 120 119 118 117 116 115 113 111 110 109 108 107 106 105 103 101 99 96 94 91 89 86 83 80 77 75 73 70 68 67 66 65 64 64 63 62 60 58 56 54 52 50 48 46 45 43 42 42 41 41 40 40 39 38 37 36 35 34 34 33 33 32 31 29 28 26 25 24 23 21
123 122 121 121 120 120 120 120 120 120 120 120 120 120 120 119 118 117 116 115 114 112 111 109 108 107 106 106 104 103 101 99 97 94 92 89 86 83 80 78 75 72 70 68 66 64 63 62 61 61 61 60 58 56 54 52 50 48 46 44 43 41 41 40 39 39 39 38 37 37 36 35 34 33 32 31 31 30 30 28 27 25 24 23 22 21
120 119 118 118 118 118 118 118 118 118 118 118 118 118 118 117 116 116 114 113 111 110 108 107 106 105 105 104 103 101 99 97 95 93 90 87 84 81 78 76 73 71 68 66 64 62 60 59 59 58 58 57 56 55 53 51 49 47 44 43 41 40 39 39 38 38 37 37 36 35 35 34 33 32 31 30 29 29 28 27 26 24 23 22 21 20
116 116 116 116 116 116 116 116 117 117 117 117 117 116 116 115 114 114 112 111 109 107 105 105 104 104 103 102 101 99 97 95 93 91 88 85 82 79 77 74 72 69 67 65 62 60 58 57 56 56 56 56 55 54 52 50 48 46 43 42 40 39 38 38 37 37 36 36 35 34 34 33 32 31 30 29 28 28 27 26 24 23 22 21 20 20
114 113 114 114 114 114 114 115 115 115 115 115 115 115 114 114 113 111 110 108 106 104 103 103 102 102 101 100 99 97 95 93 91 88 86 83 80 78 75 73 71 68 66 64 62 59 57 56 54 54 54 54 54 53 52 50 47 45 43 41 39 38 38 37 37 36 36 35 34 34 33 32 31 30 29 28 27 26 26 25 24 22 21 21 20 19
111 111 112 112 112 112 113 113 114 114 114 114 114 113 113 112 111 109 107 104 103 102 101 101 100 100 99 98 97 95 93 91 89 86 83 81 78 75 73 71 70 68 66 64 62 60 57 55 53 52 52 52 52 52 51 49 47 44 42 40 39 38 38 37 37 36 36 35 34 33 32 31 30 29 28 27 26 26 25 24 23 22 21 20 19 18
109 110 110 110 111 111 111 112 112 112 112 112 112 112 111 110 108 106 104 102 100 100 99 99 98 98 97 96 95 93 91 89 86 84 81 78 76 74 71 70 68 66 65 63 61 60 58 56 54 52 51 50 50 50 50 49 47 45 42 40 39 38 38 37 37 36 35 34 34 32 31 30 29 28 27 26 25 25 24 23 22 21 20 19 18 18
Wind_Direction
306 307 307 308 308 309 309 310 311 311 312 312 313 313 314 315 316 316 317 318 319 319 320 320 320 321 321 321 322 322 322 322 322 322 323 323 323 324 324 325 325 325 325 325 325 326 326 326 326 327 327 327 327 326 326 326 326 326 326 325 325 325 325 324 324 323 323 322 322 322 321 320 320 319 319 318 317 317 316 315 314 313 313 312 310 309
306 307 307 308 309 309 310 310 311 311 312 313 313 314 315 315 316 317 318 318 319 319 320 320 320 321 321 321 322 322 322 322 322 322 323 323 324 324 324 325 325 325 325 325 325 326 326 326 327 327 327 327 327 327 326 326 326 326 326 325 325 325 325 324 324 324 323 323 322 322 321 321 320 320 319 318 318 317 316 316 315 314 313 312 311 310
307 307 308 308 309 309 310 311 311 312 312 313 314 314 315 316 317 318 318 319 319 319 320 320 320 321 321 321 322 322 322 322 322 323 323 324 324 324 324 325 325 325 325 325 326 326 326 327 327 327 327 327 327 327 327 326 326 326 326 326 325 325 325 324 324 324 323 323 322 322 321 321 320 320 319 319 318 317 316 316 315 314 314 313 312 311
307 307 308 309 309 310 310 311 311 312 313 314 314 315 316 317 317 318 318 319 319 320 320 320 320 321 321 321 322 322 322 322 323 323 323 324 324 324 324 325 325 325 325 325 326 326 326 327 327 327 327 327 327 327 327 326 326 326 326 326 326 325 325 325 324 324 323 323 322 322 321 321 320 320 319 319 318 317 317 316 316 315 314 313 312 311
307 308 308 309 309 310 311 311 312 313 313 314 315 316 316 317 318 318 319 319 319 320 320 320 321 321 321 321 322 322 322 323 323 323 323 324 324 324 324 324 325 325 325 326 326 326 327 327 327 327 327 327 327 327 327 327 327 326 326 326 326 326 325 325 324 324 323 323 323 322 321 321 320 320 319 319 318 318 317 317 316 316 315 314 313 312
307 308 309 309 310 310 311 312 312 313 314 315 315 316 317 317 318 318 319 319 319 320 320 320 321 321 321 322 322 322 322 323 323 323 323 324 324 324 324 324 325 325 325 326 326 326 327 327 327 327 327 327 327 327 327 327 327 327 326 326 326 326 325 325 324 324 324 323 323 322 322 321 321 320 319 319 319 318 318 317 317 317 316 315 314 313
307 308 309 309 310 311 311 312 313 314 314 315 316 316 317 317 318 318 319 319 320 320 320 320 321 321 321 322 322 322 323 323 323 323 323 324 324 324 324 325 325 325 326 326 326 327 327 327 327 327 327 327 327 327 327 327 327 327 327 326 326 326 325 325 325 324 324 323 323 322 322 321 321 320 320 319 319 319 319 318 318 318 317 316 315 314
308 308 309 310 310 311 312 312 313 314 315 315 316 317 317 318 318 318 319 319 320 320 320 321 321 321 322 322 322 322 323 323 323 323 323 324 324 324 324 325 325 325 326 326 327 327 327 327 327 327 327 327 327 327 327 327 327 327 327 326 326 326 325 325 325 324 324 323 323 322 322 321 321 321 320 320 320 320 319 319 319 319 318 317 316 315
308 309 309 310 311 311 312 313 313 314 315 316 316 317 317 318 318 319 319 319 320 320 320 321 321 321 322 322 322 322 323 323 323 323 323 323 324 324 324 325 325 326 326 326 327 327 327 327 327 327 327 327 327 327 327 327 327 327 327 326 326 326 325 325 325 324 324 323 323 322 322 322 321 321 321 321 320 321 321 320 320 320 320 319 318 316
308 309 310 310 311 312 312 313 314 314 315 316 316 317 317 318 319 319 319 320 320 320 321 321 321 322 322 322 322 322 322 323 323 323 323 324 324 324 325 325 325 326 326 327 327 327 327 327 327 327 327 327 328 328 327 327 327 327 327 326 326 326 325 325 325 324 324 323 323 322 322 322 322 321 321 321 321 321 321 321 321 321 321 320 319 317
309 309 310 310 311 312 312 313 314 315 315 316 316 317 317 318 319 319 320 320 320 320 321 321 321 322 322 322 322 322 322 323 323 323 323 324 324 324 325 325 326 326 326 327 327 327 327 327 327 328 328 328 328 328 328 327 327 327 327 326 326 326 325 325 324 324 323 323 323 322 322 322 322 322 322 322 322 322 322 322 322 322 322 321 320 318
309 309 310 311 311 312 313 313 314 315 315 316 317 317 318 318 319 319 320 320 320 321 321 321 321 322 322 322 322 322 322 322 323 323 323 324 324 325 325 326 326 326 327 327 327 327 327 327 328 328 328 328 328 328 328 327 327 327 327 326 326 326 325 325 324 324 323 323 323 322 322 322 322 322 323 323 323 323 323 323 323 323 323 322 321 320
309 310 310 311 312 312 313 314 315 315 316 316 317 318 318 319 319 319 320 320 320 321 321 321 321 321 321 322 322 322 322 322 323 323 323 324 324 325 325 326 326 326 327 327 327 327 328 328 328 328 328 328 328 328 328 327 327 327 327 326 326 326 325 325 324 324 323 323 323 323 323 323 323 323 323 323 324 324 324 324 324 324 324 323 322 321
309 310 311 311 312 313 314 314 315 316 316 317 317 318 318 319 319 319 320 320 320 321 321 321 321 321 321 321 322 322 322 322 323 323 323 324 325 325 325 326 326 327 327 327 327 327 328 328 328 328 328 328 328 328 328 327 327 327 327 326 326 326 325 325 324 324 323 323 323 323 323 323 324 324 324 324 324 324 325 325 325 325 324 324 323 321
309 310 311 312 313 313 314 315 315 316 317 317 318 318 318 319 319 319 320 320 320 321 321 321 321 321 321 321 322 322 322 322 323 323 324 324 325 325 326 326 326 327 327 327 327 327 328 328 328 328 328 328 328 328 327 327 327 327 327 326 326 326 325 325 324 324 324 323 323 323 324 324 324 325 325 325 325 325 325 325 325 325 325 324 323 322
310 311 312 312 313 314 314 315 316 316 317 317 318 318 318 319 319 320 320 320 320 321 321 321 321 321 321 321 322 322 322 323 323 323 324 324 325 325 326 326 326 327 327 327 327 327 328 328 328 328 328 328 328 328 327 327 327 327 327 326 326 326 325 325 324 324 324 323 324 324 324 325 325 325 325 325 325 325 325 326 326 326 325 324 324 322
310 311 312 313 314 314 315 315 316 317 317 317 318 318 318 319 319 320 320 320 320 320 320 321 321 321 321 321 322 322 323 323 323 323 324 324 325 325 326 326 326 327 327 327 327 328 328 328 328 328 328 328 328 328 327 327 327 327 327 326 326 326 325 325 324 324 323 324 324 324 325 325 325 326 325 325 325 325 325 326 326 326 325 325 324 322
311 312 313 313 314 315 315 316 316 317 317 317 318 318 318 319 319 319 320 320 320 320 320 320 320 321 321 321 322 322 323 323 323 323 324 324 325 325 326 326 326 327 327 327 327 328 328 328 328 328 328 328 328 327 327 327 327 327 327 326 326 325 325 324 324 324 324 324 324 325 325 326 326 326 326 325 325 325 326 326 327 326 326 325 324 322
311 312 313 314 314 315 315 316 316 317 317 317 318 318 318 319 319 319 320 320 320 320 320 320 320 321 321 321 322 322 323 323 323 324 324 324 325 325 326 326 327 327 327 327 328 328 328 328 328 328 328 328 328 327 327 327 327 327 326 326 326 325 325 324 324 324 324 324 324 325 326 326 326 326 326 325 325 325 326 326 327 327 326 325 324 323
312 313 313 314 315 315 316 316 316 317 317 317 318 318 318 319 319 319 319 319 320 320 320 320 320 321 321 321 322 322 323 323 323 324 324 325 325 326 326 326 327 327 327 327 328 328 328 328 328 328 328 327 327 327 327 327 327 327 326 326 326 325 325 324 324 324 324 324 325 325 326 327 327 327 326 326 325 325 326 326 327 327 327 326 324 323
312 313 313 314 315 315 316 316 316 317 317 317 318 318 318 319 319 319 319 319 320 320 320 320 321 321 321 321 322 322 323 323 323 324 324 325 325 326 326 327 327 327 327 328 328 328 328 328 328 328 327 327 327 327 327 327 327 327 326 326 326 325 325 324 324 324 324 325 325 326 327 327 327 327 327 326 326 326 326 327 327 328 328 327 325 323
313 313 314 314 315 315 316 316 316 317 317 317 318 318 318 318 319 319 319 319 319 320 320 320 321 321 321 321 322 322 323 323 324 324 324 325 325 326 326 327 327 327 327 328 328 328 328 328 328 327 327 327 327 327 327 327 327 327 326 326 326 326 325 325 324 324 324 325 326 327 327 328 328 327 327 326 326 326 326 327 328 328 328 327 326 324
313 313 314 314 315 315 316 316 316 316 317 317 317 318 318 318 318 319 319 319 319 320 320 320 321 321 321 321 322 322 323 324 324 324 325 325 325 326 326 327 327 327 327 328 328 328 328 328 327 327 327 327 327 327 327 327 327 327 327 326 326 326 325 325 325 325 325 325 326 327 328 328 328 328 327 327 326 327 327 327 328 329 329 328 327 326
313 314 314 315 315 315 316 316 316 316 317 317 317 317 318 318 318 318 319 319 319 320 320 320 321 321 321 322 322 323 323 324 324 325 325 325 326 326 327 327 327 327 328 328 328 328 328 327 327 327 327 327 327 327 327 327 327 327 327 327 326 326 326 325 325 325 325 325 326 327 328 328 328 328 327 327 327 327 327 328 329 329 330 329 328 327
313 314 314 315 315 315 315 316 316 316 316 317 317 317 318 318 318 319 319 319 319 320 320 320 321 321 321 322 323 323 324 324 324 325 325 325 326 326 327 327 327 327 328 328 328 327 327 327 327 327 327 327 327 327 327 327 327 327 327 327 326 326 325 325 325 324 325 325 326 327 328 328 328 327 327 327 327 327 328 328 329 329 330 330 329 328
313 314 314 315 315 315 315 315 316 316 316 317 317 317 318 318 318 319 319 319 320 320 320 320 321 321 322 322 323 323 324 324 325 325 325 326 326 326 327 327 327 327 327 328 328 327 327 327 327 327 327 327 327 327 327 327 327 327 327 327 326 326 325 325 324 324 325 325 326 327 328 329 328 327 327 327 327 327 327 328 329 330 330 330 330 328
313 314 314 314 315 315 315 315 316 316 316 317 317 317 318 318 318 319 319 319 320 320 320 321 321 321 322 323 323 323 324 324 325 325 325 326 326 327 327 327 327 327 327 327 327 327 327 327 327 327 327 327 327 327 327 327 327 327 327 327 327 326 326 325 325 324 325 325 326 328 328 329 328 327 327 326 326 326 327 328 328 329 330 331 330 329
313 314 314 314 314 315 315 315 316 316 316 317 317 317 318 318 318 319 319 319 320 320 320 321 321 322 322 323 323 324 324 324 325 325 326 326 326 327 327 327 327 327 327 327 327 327 327 327 326 326 327 327 327 327 327 327 327 327 327 327 327 327 326 325 325 325 325 325 327 328 328 329 328 327 327 326 326 326 326 327 328 329 330 330 330 329
313 314 314 314 314 315 315 315 316 316 317 317 317 318 318 318 318 319 319 319 320 320 320 321 321 322 322 323 323 324 324 324 325 325 326 326 326 327 327 327 327 327 327 327 327 327 326 326 326 326 326 326 327 327 327 327 327 328 328 328 328 327 327 326 325 325 325 325 326 327 328 329 328 327 327 326 326 326 326 326 327 328 329 330 330 330
313 314 314 314 314 315 315 315 316 316 317 317 317 318 318 318 318 319 319 319 320 320 320 321 322 322 323 323 323 324 324 325 325 326 326 326 327 327 327 327 327 327 327 327 327 326 326 326 326 326 326 326 326 327 327 327 328 328 329 329 329 328 327 326 325 325 325 325 326 327 328 329 329 328 327 326 326 326 326 326 326 327 328 329 330 331
313 313 314 314 314 315 315 316 316 316 317 317 317 318 318 318 318 319 319 319 320 320 321 321 322 322 323 323 323 324 324 325 325 326 326 326 327 327 327 327 327 327 327 327 326 326 326 326 326 326 326 326 327 327 327 328 328 329 329 330 329 329 328 327 325 325 324 325 326 327 329 329 329 329 328 327 326 326 326 326 326 326 327 329 330 331
313 313 314 314 314 315 315 316 316 316 317 317 317 318 318 318 318 318 319 319 320 320 321 322 322 323 323 323 324 324 324 325 325 326 326 326 327 327 327 327 327 327 327 327 326 326 326 325 325 326 326 326 327 327 327 328 329 329 330 330 330 329 328 327 326 325 324 325 326 328 329 329 330 329 328 328 327 327 326 326 326 326 327 328 330 331
313 313 314 314 314 315 315 316 316 316 317 317 317 318 318 318 318 318 319 319 320 321 321 322 322 323 323 324 324 324 324 325 325 326 326 326 327 327 327 327 327 327 327 326 326 326 325 325 325 325 326 326 327 327 328 328 329 330 330 331 331 330 329 327 326 325 324 325 326 328 329 330 330 329 329 328 328 328 328 327 326 326 327 328 330 331
313 313 313 314 314 315 315 316 316 316 317 317 317 317 318 318 318 318 319 319 320 321 321 322 323 323 323 324 324 324 325 325 326 326 326 326 327 327 327 327 327 327 326 326 326 326 325 325 325 325 325 326 327 327 328 329 330 330 331 331 331 331 329 327 326 325 324 325 326 327 329 329 330 330 329 329 329 329 329 328 328 327 327 328 329 331
313 313 313 314 314 315 315 316 316 316 317 317 317 317 317 318 318 318 319 320 320 321 322 322 323 323 323 324 324 324 325 325 326 326 326 326 327 327 327 327 327 327 326 326 326 325 325 325 325 325 325 326 327 328 328 329 330 331 331 332 332 331 329 327 326 324 324 324 326 327 328 329 329 329 329 329 329 330 330 330 329 328 328 328 329 331
313 313 314 314 315 315 316 316 316 316 316 317 317 317 317 318 318 319 319 320 321 321 322 323 323 323 324 324 324 324 325 325 325 326 326 326 327 327 327 327 327 327 326 326 325 325 325 325 325 325 326 326 327 328 329 330 331 331 332 332 332 331 329 327 325 324 324 325 326 327 328 329 329 329 329 329 330 331 331 332 331 330 329 329 329 330
313 313 314 314 315 315 315 316 316 316 316 316 317 317 317 318 318 319 319 320 321 322 322 323 323 324 324 324 324 324 325 325 325 326 326 327 327 327 327 327 327 326 326 326 325 325 325 325 325 325 326 326 327 328 329 330 331 332 332 333 333 332 330 328 326 325 325 326 327 328 329 330 330 329 329 329 330 331 332 333 333 332 330 329 329 330
313 313 314 314 315 315 315 316 316 316 316 316 316 317 317 318 318 319 320 321 321 322 323 323 324 324 324 324 324 325 325 325 326 326 326 327 327 327 327 327 326 326 326 326 325 325 325 325 325 325 326 327 327 328 330 331 332 332 333 333 333 332 331 329 327 327 327 327 328 329 330 331 330 330 329 329 330 331 332 334 334 333 332 330 330 329
313 314 314 314 315 315 315 315 315 316 316 316 316 317 317 318 319 319 320 321 322 322 323 323 324 324 324 324 324 324 325 325 326 326 326 327 327 327 327 327 326 326 326 326 325 325 325 325 325 326 326 327 328 329 330 331 332 333 334 334 334 333 332 331 329 329 329 329 330 331 331 332 331 330 330 329 330 331 332 334 334 334 333 331 330 330
313 314 314 314 315 315 315 315 315 315 316 316 316 317 318 318 319 320 320 321 322 323 323 324 324 324 324 324 324 324 325 325 326 326 326 327 327 327 327 327 326 326 326 326 325 325 325 325 325 326 326 327 328 329 331 332 333 334 335 336 336 335 334 332 331 331 331 331 331 332 332 332 332 331 330 330 330 331 332 333 334 334 333 332 331 330
313 314 314 314 314 315 315 315 315 315 316 316 317 317 318 319 319 320 321 322 322 323 324 324 324 324 324 324 324 324 325 325 326 326 327 327 327 327 327 327 326 326 326 326 326 326 326 326 326 326 327 328 329 330 331 333 334 335 336 337 337 336 334 333 332 332 331 332 332 332 332 332 331 331 330 329 329 330 331 333 334 334 333 333 332 331
313 314 314 314 314 315 315 315 315 316 316 316 317 318 318 319 320 321 321 322 323 324 324 324 324 324 324 324 324 325 325 325 326 326 327 327 327 327 327 327 326 326 326 326 326 326 327 327 327 327 328 329 330 331 332 334 335 336 337 337 337 336 334 333 332 332 331 331 332 332 332 332 331 330 329 329 329 330 331 332 333 334 333 333 332 331
313 314 314 314 314 314 315 315 315 316 316 317 317 318 319 319 320 321 322 323 323 324 324 324 324 324 324 324 324 325 325 326 326 327 327 327 327 327 327 327 326 327 327 327 327 327 327 327 328 328 328 329 330 331 333 334 335 336 337 337 337 336 334 333 332 331 331 331 331 331 331 331 331 330 329 329 328 329 331 332 333 333 333 332 332 331
313 314 314 314 314 314 314 315 315 316 316 317 318 318 319 320 321 322 322 323 324 324 324 324 324 324 324 324 324 325 325 326 326 327 327 327 327 327 327 326 326 326 327 327 327 328 328 328 328 328 329 329 330 331 332 334 335 336 336 337 336 335 334 332 331 331 330 330 330 330 331 331 331 330 329 328 328 329 330 332 333 333 333 332 332 331
313 313 314 314 314 314 314 315 315 316 317 317 318 319 319 320 321 322 323 323 324 324 324 324 324 324 324 324 325 325 326 326 327 327 327 327 327 327 327 326 326 327 327 327 328 328 328 328 329 328 329 329 330 331 332 333 334 335 336 336 336 335 334 332 331 331 330 330 330 330 331 331 331 330 330 329 329 329 330 332 333 334 333 332 332 331
313 313 313 313 314 314 315 315 316 316 317 318 318 319 320 321 322 322 323 324 324 324 324 324 324 324 324 324 325 325 326 327 327 327 327 327 327 327 326 326 326 327 327 327 328 328 329 329 329 328 328 329 329 330 331 333 334 335 336 336 336 335 334 333 332 331 331 331 331 331 331 331 332 331 331 330 330 330 331 332 334 334 334 333 332 332
313 313 313 313 314 314 315 315 316 317 317 318 319 319 320 321 322 323 323 324 324 324 324 324 324 324 324 325 325 326 326 327 327 327 327 327 327 326 326 326 327 327 327 328 328 328 329 329 329 329 328 329 329 330 331 333 334 336 337 337 337 336 335 334 333 332 332 332 332 332 333 333 333 333 332 332 331 332 332 333 335 335 335 334 334 333
312 313 313 313 314 314 315 316 317 317 318 318 319 320 321 322 322 323 324 324 324 324 324 324 324 324 324 325 325 326 327 327 327 327 327 327 327 327 326 327 327 327 327 328 328 329 329 329 329 329 329 329 330 330 332 333 335 337 338 338 338 337 336 335 334 334 334 334 334 334 334 334 334 334 334 334 333 333 334 335 336 336 336 335 335 335
312 313 313 314 314 315 316 316 317 318 318 319 320 320 321 322 323 323 324 324 324 324 324 324 324 325 325 325 326 326 327 327 327 327 327 327 327 327 327 327 327 328 328 328 329 329 329 330 330 330 331 331 331 331 332 334 335 337 339 340 339 339 338 337 336 336 336 336 336 336 336 336 336 336 336 335 335 335 336 337 337 338 337 337 336 336
312 313 313 314 315 315 316 317 317 318 319 320 320 321 322 322 323 324 324 324 325 324 324 325 325 325 325 326 326 327 327 327 327 327 327 327 327 327 327 328 328 328 329 329 329 330 330 331 331 332 332 332 332 332 333 334 336 338 340 341 341 341 340 339 338 338 338 338 338 338 338 338 338 338 337 337 337 337 338 339 339 339 339 339 338 338
312 313 314 314 315 316 316 317 318 319 319 320 321 321 322 322 323 324 324 325 325 325 325 325 325 325 326 326 326 327 327 327 327 327 327 327 327 327 328 328 329 329 330 330 330 331 331 331 332 333 333 334 334 334 334 335 336 338 341 343 343 343 342 341 340 339 339 339 339 340 340 340 340 339 339 339 340 340 340 340 341 341 341 341 340 340
Height
10575 10570 10566 10562 10558 10553 10547 10542 10539 10535 10530 10524 10518 10513 10507 10502 10497 10490 10485 10479 10473 10467 10461 10455 10449 10442 10436 10430 10424 10418 10411 10404 10397 10390 10383 10375 10369 10361 10354 10347 10339 10332 10324 10317 10309 10301 10293 10285 10277 10269 10260 10252 10244 10236 10229 10221 10214 10206 10199 10192 10185 10179 10173 10166 10160 10154 10149 10142 10137 10132 10126 10121 10117 10112 10107 10103 10099 10094 10090 10087 10083 10079 10076 10073 10070 10067
10569 10564 10560 10555 10552 10547 10542 10536 10532 10527 10523 10518 10512 10506 10500 10495 10489 10483 10477 10471 10465 10459 10454 10447 10441 10435 10429 10423 10417 10411 10404 10397 10389 10382 10374 10367 10360 10353 10345 10339 10331 10324 10316 10309 10301 10293 10285 10277 10269 10260 10252 10244 10236 10229 10220 10214 10206 10199 10192 10185 10179 10172 10165 10160 10154 10147 10142 10136 10130 10125 10120 10115 10110 10106 10102 10097 10093 10089 10085 10081 10077 10074 10070 10067 10064 10061
10564 10559 10553 10549 10545 10541 10536 10530 10525 10520 10515 10511 10505 10499 10494 10487 10482 10476 10470 10464 10458 10452 10446 10440 10434 10428 10422 10415 10409 10404 10397 10389 10381 10374 10366 10359 10352 10345 10338 10330 10324 10316 10309 10300 10292 10285 10276 10268 10260 10252 10244 10236 10228 10220 10213 10206 10199 10192 10185 10179 10172 10165 10159 10153 10147 10141 10135 10130 10124 10119 10114 10109 10105 10100 10096 10092 10087 10084 10080 10076 10072 10069 10065 10062 10059 10056
10557 10553 10547 10542 10538 10534 10529 10524 10520 10514 10509 10504 10499 10493 10487 10481 10475 10469 10464 10457 10451 10445 10439 10434 10428 10422 10415 10408 10402 10395 10389 10381 10374 10365 10358 10351 10344 10337 10330 10323 10316 10308 10300 10292 10284 10276 10268 10260 10252 10244 10236 10228 10220 10213 10206 10199 10192 10185 10178 10171 10165 10159 10152 10146 10140 10135 10129 10124 10119 10114 10109 10104 10099 10095 10090 10086 10082 10079 10075 10071 10067 10064 10060 10057 10054 10050
10551 10547 10542 10537 10532 10527 10522 10517 10513 10508 10502 10497 10491 10486 10481 10475 10469 10463 10457 10450 10444 10437 10432 10426 10420 10415 10409 10402 10394 10387 10380 10372 10365 10358 10350 10344 10337 10330 10323 10315 10308 10300 10292 10284 10276 10268 10260 10252 10244 10236 10228 10220 10213 10205 10199 10192 10184 10178 10171 10164 10158 10152 10145 10140 10134 10129 10123 10118 10113 10108 10103 10099 10094 10090 10085 10081 10077 10074 10070 10066 10062 10059 10055 10052 10049 10045
10545 10541 10537 10532 10527 10522 10517 10512 10507 10502 10497 10490 10484 10479 10474 10469 10464 10458 10452 10445 10438 10430 10424 10417 10412 10407 10402 10395 10388 10380 10372 10365 10357 10350 10344 10337 10330 10323 10315 10308 10300 10292 10284 10276 10268 10260 10252 10244 10236 10228 10220 10213 10205 10199 10191 10184 10177 10171 10164 10158 10152 10145 10139 10134 10128 10122 10117 10112 10107 10102 10098 10094 10089 10085 10080 10077 10072 10069 10065 10062 10058 10054 10051 10047 10044 10041
10539 10534 10530 10526 10521 10516 10510 10506 10502 10497 10492 10486 10479 10472 10467 10461 10456 10451 10446 10440 10434 10426 10418 10410 10404 10398 10393 10388 10381 10374 10365 10358 10350 10343 10336 10329 10322 10315 10308 10300 10292 10284 10276 10268 10260 10252 10244 10236 10228 10220 10213 10205 10199 10191 10184 10177 10171 10164 10158 10151 10145 10139 10134 10128 10122 10117 10112 10107 10102 10097 10092 10088 10084 10080 10075 10072 10068 10064 10060 10057 10054 10050 10047 10043 10040 10037
10534 10529 10524 10519 10514 10510 10504 10499 10495 10491 10487 10482 10475 10468 10461 10455 10449 10443 10438 10433 10427 10421 10413 10404 10396 10389 10383 10378 10373 10367 10359 10352 10344 10337 10330 10322 10315 10308 10300 10292 10284 10276 10268 10260 10252 10244 10236 10229 10220 10214 10206 10199 10192 10185 10178 10171 10164 10158 10152 10145 10139 10133 10127 10122 10117 10111 10106 10101 10097 10092 10087 10083 10079 10075 10071 10067 10063 10060 10056 10053 10049 10046 10043 10039 10036 10032
10529 10524 10519 10514 10509 10504 10500 10494 10489 10484 10480 10475 10470 10464 10457 10450 10443 10435 10429 10423 10418 10414 10407 10400 10392 10383 10375 10368 10362 10358 10352 10345 10338 10330 10324 10317 10310 10302 10294 10285 10277 10269 10261 10252 10244 10237 10229 10221 10214 10206 10199 10192 10185 10178 10172 10165 10158 10152 10145 10139 10133 10127 10122 10116 10111 10106 10101 10096 10092 10087 10083 10079 10074 10070 10066 10062 10059 10055 10052 10049 10045 10042 10039 10035 10032 10029
10524 10519 10514 10509 10504 10499 10494 10490 10484 10479 10474 10469 10464 10457 10452 10447 10440 10432 10424 10415 10409 10404 10399 10393 10386 10379 10370 10362 10354 10348 10343 10337 10330 10323 10316 10309 10302 10295 10287 10279 10270 10263 10255 10246 10238 10230 10222 10214 10207 10199 10192 10185 10179 10172 10165 10159 10152 10146 10140 10134 10127 10122 10116 10111 10106 10101 10096 10091 10087 10082 10078 10074 10070 10065 10062 10058 10054 10051 10047 10044 10041 10038 10035 10032 10029 10025
10519 10514 10509 10504 10498 10493 10488 10484 10479 10474 10469 10464 10457 10450 10444 10439 10434 10428 10420 10411 10402 10395 10390 10384 10378 10372 10367 10359 10350 10342 10335 10329 10322 10315 10308 10300 10293 10286 10279 10270 10262 10255 10247 10239 10231 10223 10216 10209 10200 10194 10186 10179 10173 10166 10159 10153 10147 10140 10134 10128 10122 10117 10111 10106 10101 10096 10091 10087 10082 10078 10074 10069 10065 10061 10057 10054 10050 10047 10044 10040 10037 10034 10032 10029 10025 10022
10514 10509 10504 10499 10494 10488 10482 10477 10472 10467 10462 10457 10450 10444 10437 10430 10425 10420 10414 10407 10399 10391 10384 10377 10370 10365 10360 10354 10347 10339 10330 10322 10315 10309 10302 10294 10286 10278 10270 10262 10254 10246 10240 10232 10224 10216 10209 10202 10195 10187 10180 10174 10167 10160 10154 10147 10141 10135 10129 10123 10117 10112 10106 10101 10096 10091 10087 10082 10078 10074 10069 10065 10062 10057 10054 10050 10046 10042 10039 10036 10033 10030 10027 10025 10022 10019
10509 10504 10499 10494 10488 10482 10477 10472 10466 10460 10455 10450 10444 10438 10431 10425 10419 10414 10408 10401 10394 10387 10380 10373 10365 10359 10353 10348 10342 10334 10325 10316 10308 10301 10294 10287 10279 10271 10264 10255 10246 10239 10232 10225 10217 10210 10203 10195 10189 10181 10174 10168 10161 10154 10148 10142 10135 10130 10124 10118 10112 10107 10102 10097 10092 10087 10082 10077 10074 10069 10065 10061 10057 10054 10050 10046 10042 10039 10035 10032 10029 10026 10024 10021 10019 10015
10504 10499 10494 10488 10482 10476 10471 10465 10460 10455 10449 10444 10439 10433 10426 10420 10414 10408 10402 10395 10387 10380 10374 10366 10359 10351 10345 10342 10337 10330 10321 10311 10301 10293 10286 10279 10271 10264 10257 10249 10240 10232 10225 10219 10212 10204 10197 10190 10183 10175 10169 10162 10155 10149 10143 10137 10130 10125 10119 10114 10108 10102 10097 10092 10087 10082 10077 10073 10069 10065 10061 10057 10054 10050 10046 10042 10039 10035 10032 10029 10025 10023 10020 10017 10015 10012
10499 10494 10489 10482 10476 10470 10465 10460 10454 10449 10442 10437 10432 10426 10420 10414 10407 10401 10395 10389 10382 10375 10367 10360 10352 10343 10335 10330 10327 10323 10316 10307 10296 10286 10279 10271 10264 10257 10250 10242 10234 10225 10219 10212 10205 10198 10190 10184 10177 10170 10164 10157 10150 10144 10138 10132 10125 10120 10114 10109 10103 10098 10093 10088 10083 10078 10074 10069 10065 10061 10057 10054 10050 10046 10042 10039 10035 10032 10029 10025 10022 10019 10016 10014 10011 10009
10493 10488 10483 10477 10471 10465 10459 10454 10448 10442 10437 10431 10425 10420 10415 10409 10402 10396 10390 10384 10377 10370 10363 10355 10348 10339 10329 10320 10315 10310 10307 10299 10289 10280 10272 10265 10257 10250 10244 10237 10229 10220 10213 10206 10199 10192 10185 10178 10171 10165 10158 10152 10145 10139 10133 10127 10121 10115 10110 10104 10099 10094 10089 10084 10079 10074 10069 10065 10061 10057 10054 10050 10046 10043 10039 10035 10032 10029 10026 10023 10020 10016 10013 10010 10008 10005
10487 10482 10477 10472 10465 10459 10453 10447 10442 10437 10431 10425 10419 10414 10409 10404 10398 10392 10386 10379 10372 10365 10359 10351 10344 10336 10327 10317 10309 10302 10297 10291 10283 10274 10265 10258 10251 10244 10237 10231 10224 10215 10208 10201 10194 10187 10180 10172 10166 10159 10153 10146 10140 10134 10128 10122 10116 10110 10105 10100 10095 10089 10084 10079 10075 10070 10065 10062 10058 10054 10050 10047 10044 10040 10036 10032 10029 10026 10023 10020 10017 10014 10010 10007 10005 10002
10482 10477 10472 10466 10460 10454 10447 10442 10437 10431 10425 10419 10413 10407 10402 10397 10391 10386 10380 10374 10368 10362 10354 10347 10339 10331 10324 10315 10306 10297 10291 10285 10277 10269 10260 10253 10245 10238 10231 10224 10217 10210 10202 10195 10189 10182 10174 10167 10160 10154 10148 10142 10135 10129 10124 10117 10112 10107 10101 10096 10090 10085 10080 10075 10070 10066 10062 10058 10055 10051 10048 10044 10040 10037 10033 10030 10026 10023 10020 10017 10015 10012 10009 10005 10002 9999
10476 10471 10466 10462 10456 10449 10442 10436 10431 10426 10420 10414 10408 10402 10397 10390 10385 10380 10374 10369 10362 10356 10350 10343 10335 10327 10319 10310 10301 10293 10285 10279 10271 10263 10255 10247 10240 10233 10226 10219 10211 10204 10197 10190 10183 10176 10169 10162 10155 10149 10143 10137 10131 10125 10119 10114 10108 10102 10097 10092 10087 10082 10077 10072 10067 10062 10059 10055 10051 10048 10045 10041 10038 10034 10030 10027 10024 10020 10017 10015 10012 10009 10006 10003 10000 9997
10471 10465 10460 10456 10452 10445 10438 10431 10425 10420 10415 10410 10404 10397 10391 10385 10380 10374 10369 10363 10357 10350 10344 10337 10329 10321 10312 10304 10295 10286 10279 10272 10265 10256 10248 10240 10234 10227 10220 10214 10206 10199 10191 10184 10177 10171 10164 10157 10150 10144 10139 10132 10127 10121 10115 10110 10104 10099 10094 10089 10084 10078 10073 10068 10063 10059 10054 10051 10048 10045 10041 10038 10035 10031 10027 10024 10021 10018 10015 10012 10010 10007 10004 10000 9997 9994
10467 10461 10455 10450 10446 10440 10434 10427 10420 10415 10410 10405 10399 10392 10386 10380 10374 10367 10360 10355 10349 10342 10335 10329 10322 10314 10307 10299 10290 10282 10274 10267 10260 10251 10242 10234 10227 10220 10214 10208 10200 10193 10186 10179 10172 10165 10159 10153 10146 10140 10134 10128 10122 10117 10112 10106 10101 10095 10090 10085 10080 10074 10069 10064 10059 10055 10050 10047 10044 10040 10038 10035 10031 10028 10025 10022 10018 10015 10012 10010 10007 10005 10002 9999 9995 9992
10462 10457 10451 10445 10440 10435 10429 10422 10416 10410 10405 10400 10395 10389 10382 10375 10369 10362 10355 10348 10342 10335 10327 10321 10314 10308 10302 10295 10287 10279 10270 10263 10255 10247 10238 10230 10222 10215 10209 10202 10195 10187 10180 10174 10167 10160 10154 10148 10142 10135 10130 10124 10119 10113 10108 10102 10097 10092 10087 10082 10076 10071 10065 10060 10055 10051 10047 10044 10040 10037 10034 10031 10028 10025 10022 10019 10015 10012 10010 10007 10005 10002 9999 9997 9993 9990
10457 10452 10446 10440 10435 10430 10424 10418 10412 10405 10400 10395 10390 10384 10378 10372 10366 10360 10352 10345 10338 10330 10323 10316 10309 10302 10295 10288 10280 10272 10264 10257 10249 10241 10233 10224 10217 10210 10204 10197 10189 10182 10175 10169 10162 10155 10149 10142 10137 10131 10125 10120 10114 10109 10104 10099 10094 10089 10083 10078 10073 10067 10062 10057 10052 10048 10044 10040 10037 10034 10030 10027 10024 10021 10019 10015 10013 10010 10007 10005 10002 10000 9997 9994 9991 9988
10452 10447 10441 10435 10430 10425 10419 10413 10407 10400 10395 10389 10384 10378 10372 10366 10360 10354 10348 10341 10334 10326 10319 10310 10303 10295 10288 10280 10272 10265 10257 10250 10243 10235 10227 10219 10211 10204 10198 10192 10184 10177 10169 10163 10157 10151 10144 10138 10132 10127 10121 10115 10110 10105 10100 10095 10090 10085 10080 10075 10070 10065 10060 10055 10050 10045 10041 10037 10034 10031 10027 10024 10021 10018 10015 10012 10010 10007 10005 10002 10000 9997 9995 9992 9989 9986
10448 10442 10437 10431 10425 10420 10414 10409 10402 10396 10390 10384 10378 10372 10366 10359 10353 10346 10340 10334 10327 10319 10311 10303 10295 10288 10281 10274 10267 10259 10251 10244 10237 10230 10222 10214 10206 10199 10192 10186 10179 10172 10165 10158 10152 10146 10140 10134 10128 10122 10117 10112 10106 10102 10097 10092 10087 10082 10077 10072 10067 10062 10057 10052 10048 10044 10039 10035 10032 10029 10025 10022 10019 10015 10012 10009 10007 10004 10002 10000 9997 9995 9993 9990 9987 9985
10443 10437 10432 10426 10420 10415 10409 10404 10397 10391 10385 10379 10373 10367 10360 10354 10346 10339 10332 10325 10319 10312 10305 10297 10289 10281 10274 10267 10260 10252 10244 10237 10230 10223 10217 10210 10202 10194 10187 10180 10174 10167 10160 10153 10147 10141 10134 10129 10123 10118 10112 10107 10103 10098 10093 10089 10084 10079 10074 10070 10065 10060 10055 10050 10045 10041 10037 10034 10030 10027 10024 10020 10017 10013 10010 10007 10004 10002 9999 9997 9995 9993 9990 9989 9985 9983
10437 10432 10427 10421 10415 10409 10404 10397 10392 10385 10380 10374 10367 10361 10354 10347 10340 10332 10324 10317 10311 10305 10298 10291 10284 10275 10267 10260 10252 10245 10239 10231 10224 10217 10210 10204 10197 10189 10182 10175 10169 10162 10155 10148 10142 10136 10130 10124 10118 10113 10109 10104 10099 10094 10090 10085 10080 10076 10072 10067 10062 10057 10052 10047 10043 10039 10035 10032 10029 10025 10022 10019 10015 10012 10008 10005 10002 9999 9997 9995 9993 9991 9989 9987 9984 9982
10433 10427 10422 10415 10410 10404 10399 10392 10386 10380 10374 10368 10361 10355 10348 10341 10334 10326 10318 10310 10304 10299 10292 10285 10278 10271 10263 10255 10247 10240 10234 10228 10220 10213 10205 10198 10191 10184 10177 10170 10164 10157 10151 10144 10137 10132 10126 10120 10114 10109 10104 10099 10095 10090 10086 10082 10077 10073 10069 10064 10059 10054 10049 10045 10040 10036 10033 10030 10027 10024 10021 10018 10014 10010 10007 10004 10000 9998 9995 9993 9990 9989 9987 9985 9982 9980
10427 10422 10416 10410 10405 10399 10394 10387 10381 10375 10369 10362 10355 10349 10342 10335 10328 10320 10313 10305 10299 10292 10285 10279 10272 10265 10257 10249 10241 10234 10227 10221 10215 10209 10201 10193 10185 10179 10172 10165 10159 10153 10147 10139 10132 10127 10122 10117 10112 10106 10100 10095 10091 10087 10082 10078 10074 10069 10065 10060 10055 10051 10046 10042 10037 10034 10030 10027 10024 10022 10019 10016 10013 10009 10006 10002 9999 9997 9994 9991 9989 9987 9985 9984 9981 9979
10421 10415 10410 10404 10399 10393 10387 10382 10375 10369 10363 10357 10350 10343 10335 10329 10322 10314 10307 10300 10294 10287 10280 10273 10266 10260 10253 10245 10236 10227 10219 10212 10207 10202 10196 10189 10181 10174 10168 10160 10154 10147 10142 10135 10128 10121 10116 10112 10108 10104 10098 10093 10089 10084 10079 10075 10070 10066 10062 10057 10053 10048 10043 10039 10034 10030 10027 10024 10022 10020 10017 10015 10012 10009 10005 10002 9999 9995 9993 9990 9987 9985 9984 9982 9980 9977
10415 10410 10404 10399 10393 10387 10382 10376 10370 10364 10358 10351 10344 10337 10330 10323 10315 10309 10301 10294 10287 10281 10274 10267 10260 10254 10248 10242 10234 10225 10215 10207 10201 10196 10190 10184 10177 10170 10164 10157 10150 10143 10137 10131 10124 10117 10111 10106 10102 10099 10095 10090 10085 10081 10077 10072 10068 10064 10059 10055 10050 10045 10040 10035 10031 10027 10024 10021 10019 10017 10015 10012 10010 10007 10004 10000 9998 9995 9992 9989 9986 9984 9982 9980 9979 9976
10410 10405 10399 10394 10388 10382 10377 10371 10365 10359 10352 10345 10339 10332 10325 10317 10310 10304 10297 10290 10283 10276 10269 10262 10255 10248 10241 10235 10229 10222 10214 10205 10198 10191 10185 10179 10172 10165 10159 10153 10146 10139 10133 10127 10121 10115 10109 10102 10097 10093 10090 10087 10082 10079 10074 10070 10066 10062 10057 10053 10049 10044 10039 10033 10029 10024 10021 10018 10016 10014 10012 10009 10007 10005 10002 9999 9997 9994 9991 9988 9985 9982 9980 9979 9977 9975
10405 10400 10395 10389 10384 10377 10372 10366 10360 10354 10347 10340 10334 10327 10319 10312 10305 10299 10292 10285 10278 10272 10265 10258 10250 10242 10235 10227 10221 10215 10209 10202 10195 10188 10181 10174 10167 10161 10155 10149 10142 10135 10129 10122 10117 10111 10105 10100 10094 10089 10085 10082 10079 10075 10072 10067 10064 10060 10056 10052 10047 10042 10037 10032 10027 10022 10019 10015 10013 10011 10009 10007 10004 10002 10000 9997 9995 9992 9990 9987 9984 9981 9979 9977 9975 9974
10400 10395 10390 10384 10379 10372 10367 10360 10355 10348 10342 10335 10329 10322 10315 10307 10300 10294 10287 10280 10274 10267 10260 10254 10247 10239 10231 10223 10215 10208 10201 10195 10190 10184 10177 10170 10164 10157 10150 10144 10138 10132 10125 10119 10113 10107 10102 10097 10092 10087 10082 10078 10075 10072 10068 10065 10061 10057 10054 10050 10045 10040 10035 10030 10025 10020 10017 10014 10011 10009 10006 10004 10002 9999 9997 9995 9993 9990 9989 9985 9983 9980 9977 9975 9973 9972
10395 10390 10384 10379 10373 10367 10361 10355 10349 10342 10336 10329 10323 10316 10310 10303 10297 10290 10283 10277 10270 10263 10256 10249 10242 10235 10228 10220 10212 10204 10197 10190 10184 10179 10172 10167 10160 10154 10147 10140 10134 10128 10121 10115 10109 10104 10098 10092 10088 10084 10079 10075 10071 10068 10065 10061 10058 10054 10051 10048 10044 10039 10034 10029 10024 10020 10016 10013 10010 10007 10005 10002 9999 9997 9994 9992 9990 9989 9987 9984 9982 9979 9976 9974 9972 9970
10390 10385 10379 10374 10368 10362 10355 10349 10343 10337 10330 10324 10317 10311 10305 10299 10292 10285 10279 10272 10266 10259 10252 10244 10237 10230 10222 10215 10209 10201 10194 10187 10180 10175 10169 10163 10157 10150 10144 10137 10130 10124 10118 10111 10105 10099 10094 10089 10084 10079 10075 10072 10067 10064 10060 10057 10054 10051 10048 10045 10041 10037 10032 10027 10023 10019 10015 10012 10009 10006 10004 10000 9998 9995 9992 9990 9988 9987 9985 9983 9980 9978 9975 9972 9970 9968
10385 10380 10374 10369 10363 10357 10350 10344 10338 10332 10325 10319 10312 10306 10299 10293 10287 10280 10274 10268 10261 10255 10247 10240 10232 10224 10217 10210 10203 10197 10190 10184 10177 10171 10165 10159 10153 10147 10140 10133 10127 10121 10115 10109 10102 10096 10090 10085 10080 10075 10072 10068 10065 10061 10057 10054 10051 10047 10044 10041 10037 10034 10029 10025 10020 10017 10013 10010 10007 10005 10002 9999 9996 9993 9990 9987 9985 9984 9982 9981 9979 9977 9974 9971 9969 9967
10381 10375 10369 10364 10358 10352 10345 10339 10332 10326 10320 10314 10307 10301 10295 10289 10282 10277 10270 10264 10258 10250 10244 10236 10228 10220 10212 10204 10197 10190 10185 10179 10173 10167 10160 10155 10149 10143 10136 10130 10124 10117 10112 10106 10100 10094 10088 10082 10077 10072 10068 10065 10062 10059 10055 10052 10048 10044 10041 10037 10034 10030 10026 10022 10018 10014 10011 10008 10005 10003 10000 9997 9994 9991 9988 9985 9984 9982 9980 9979 9977 9975 9973 9970 9969 9966
10376 10370 10365 10359 10353 10347 10341 10334 10327 10321 10314 10308 10302 10296 10290 10284 10279 10272 10267 10261 10255 10248 10241 10233 10225 10217 10209 10201 10194 10187 10180 10174 10169 10163 10157 10151 10145 10139 10133 10127 10120 10114 10109 10103 10097 10092 10086 10080 10075 10070 10066 10062 10059 10055 10052 10049 10046 10042 10038 10034 10030 10027 10022 10019 10015 10012 10009 10006 10004 10001 9999 9995 9992 9989 9986 9984 9982 9980 9978 9977 9975 9974 9972 9970 9968 9965
10371 10365 10360 10354 10348 10342 10336 10330 10324 10317 10310 10303 10296 10290 10284 10278 10272 10266 10260 10255 10249 10244 10237 10230 10222 10214 10206 10199 10192 10184 10177 10170 10164 10159 10153 10147 10141 10135 10129 10123 10117 10111 10105 10100 10095 10089 10084 10079 10073 10069 10064 10060 10056 10052 10049 10047 10043 10040 10036 10032 10027 10024 10019 10015 10012 10009 10006 10004 10001 9999 9996 9994 9991 9988 9985 9982 9980 9978 9976 9975 9974 9972 9970 9969 9967 9965
10367 10361 10355 10349 10342 10337 10330 10324 10318 10311 10305 10299 10292 10285 10279 10272 10266 10260 10254 10248 10242 10237 10230 10224 10216 10209 10200 10194 10187 10181 10174 10167 10161 10155 10149 10143 10137 10131 10125 10119 10113 10107 10102 10097 10091 10086 10081 10075 10070 10065 10061 10057 10053 10050 10047 10044 10040 10037 10034 10030 10025 10021 10017 10014 10010 10007 10005 10002 10000 9997 9995 9992 9989 9987 9984 9981 9979 9977 9975 9974 9972 9970 9969 9967 9965 9964
10362 10356 10350 10344 10337 10331 10325 10319 10312 10305 10299 10293 10287 10280 10274 10268 10262 10255 10249 10243 10237 10230 10224 10217 10210 10204 10196 10189 10182 10177 10170 10165 10158 10152 10145 10139 10133 10127 10121 10115 10110 10104 10099 10093 10087 10082 10077 10072 10067 10062 10057 10054 10050 10047 10044 10040 10038 10035 10032 10028 10024 10020 10017 10012 10009 10006 10003 10000 9999 9996 9994 9991 9989 9985 9982 9980 9977 9975 9974 9972 9971 9969 9967 9966 9964 9963
10356 10350 10344 10339 10332 10326 10320 10314 10307 10301 10295 10289 10282 10275 10269 10263 10257 10252 10245 10239 10232 10226 10219 10212 10205 10199 10192 10185 10179 10173 10167 10161 10155 10149 10143 10136 10130 10124 10118 10112 10107 10101 10096 10090 10085 10079 10074 10069 10064 10059 10055 10051 10047 10044 10041 10039 10035 10033 10030 10027 10024 10020 10016 10012 10009 10005 10002 10000 9997 9995 9992 9990 9987 9985 9982 9979 9977 9975 9973 9972 9970 9968 9966 9965 9963 9962
10351 10345 10339 10334 10327 10322 10315 10309 10303 10297 10290 10284 10278 10272 10265 10259 10253 10247 10241 10234 10227 10220 10214 10207 10200 10193 10186 10180 10175 10169 10163 10157 10152 10146 10140 10134 10128 10122 10116 10110 10105 10100 10094 10089 10084 10078 10072 10067 10062 10057 10053 10049 10046 10043 10040 10037 10035 10032 10029 10026 10023 10020 10015 10012 10008 10004 10002 9999 9996 9994 9992 9989 9987 9984 9981 9979 9976 9974 9972 9970 9969 9967 9965 9964 9962 9960
10347 10340 10335 10329 10323 10317 10311 10305 10299 10293 10287 10280 10274 10268 10261 10255 10249 10243 10237 10231 10224 10216 10209 10202 10195 10188 10181 10175 10170 10164 10159 10154 10148 10142 10137 10130 10125 10119 10114 10109 10104 10098 10093 10088 10083 10077 10072 10066 10061 10056 10052 10048 10045 10042 10039 10037 10034 10031 10029 10025 10022 10019 10015 10012 10008 10004 10001 9998 9995 9993 9990 9988 9985 9983 9980 9978 9975 9973 9971 9970 9968 9966 9965 9963 9961 9960
10342 10335 10330 10324 10318 10312 10307 10301 10295 10289 10283 10277 10270 10264 10258 10251 10245 10239 10233 10227 10220 10213 10205 10198 10191 10184 10177 10171 10165 10159 10154 10149 10143 10138 10132 10127 10122 10116 10111 10106 10101 10097 10092 10087 10082 10077 10072 10067 10061 10055 10051 10047 10044 10040 10039 10035 10033 10030 10027 10024 10021 10017 10014 10010 10007 10004 10000 9997 9994 9992 9989 9987 9985 9982 9980 9977 9975 9972 9970 9969 9967 9965 9964 9962 9960 9959
10337 10331 10325 10319 10314 10308 10302 10297 10291 10285 10279 10272 10266 10260 10254 10248 10242 10235 10228 10222 10215 10209 10201 10194 10187 10180 10174 10167 10161 10155 10150 10144 10139 10133 10128 10122 10117 10112 10108 10103 10099 10094 10090 10085 10080 10076 10071 10066 10061 10055 10050 10046 10042 10039 10036 10034 10032 10029 10026 10023 10019 10016 10012 10009 10005 10002 9999 9996 9993 9990 9988 9985 9984 9981 9979 9976 9974 9972 9970 9968 9966 9965 9963 9961 9960 9958
10333 10327 10321 10315 10309 10304 10298 10292 10287 10280 10275 10269 10262 10255 10250 10244 10239 10232 10225 10218 10211 10204 10197 10189 10182 10175 10169 10163 10157 10152 10146 10140 10135 10129 10124 10118 10113 10108 10104 10099 10095 10091 10087 10082 10079 10074 10070 10065 10060 10055 10050 10045 10040 10037 10034 10032 10029 10027 10024 10021 10018 10014 10010 10007 10004 10000 9997 9995 9992 9989 9987 9984 9982 9980 9977 9975 9973 9970 9969 9967 9965 9964 9962 9960 9959 9958
10329 10323 10317 10311 10305 10300 10294 10288 10282 10276 10270 10264 10257 10251 10245 10239 10234 10229 10222 10215 10208 10201 10194 10186 10179 10172 10165 10159 10154 10148 10142 10137 10131 10125 10120 10115 10109 10104 10100 10095 10091 10087 10082 10079 10075 10071 10067 10064 10060 10055 10049 10044 10039 10035 10032 10029 10027 10025 10022 10019 10016 10012 10009 10005 10002 9999 9996 9994 9991 9989 9986 9984 9981 9979 9977 9974 9972 9970 9968 9966 9965 9963 9962 9960 9959 9957
10324 10319 10313 10307 10302 10296 10290 10284 10279 10272 10266 10260 10254 10247 10241 10235 10229 10224 10219 10212 10205 10197 10190 10183 10176 10169 10162 10155 10150 10144 10139 10133 10127 10122 10117 10111 10106 10101 10096 10092 10087 10082 10078 10074 10070 10067 10063 10060 10057 10053 10049 10044 10039 10034 10030 10027 10024 10022 10020 10017 10014 10011 10007 10004 10000 9997 9995 9992 9989 9987 9985 9982 9980 9978 9975 9974 9972 9969 9967 9965 9964 9963 9961 9960 9959 9957
10320 10314 10309 10303 10298 10292 10287 10280 10275 10269 10262 10255 10249 10244 10237 10232 10225 10220 10214 10207 10201 10194 10186 10179 10172 10166 10159 10153 10147 10141 10135 10130 10125 10119 10114 10108 10104 10099 10094 10089 10084 10079 10074 10070 10065 10062 10058 10055 10052 10049 10047 10043 10038 10033 10029 10025 10022 10020 10017 10015 10012 10009 10005 10002 9999 9996 9994 9991 9989 9986 9984 9982 9979 9977 9975 9973 9971 9969 9967 9965 9964 9962 9961 9959 9958 9957